N962TU KCAK-KCLE

Flight info

Callsign N962TU
Flight time N/A
Altitude VFR/035
Route VFR FF
Aircraft C172/L-DOV/C

Departure

Time 2026-04-27 20:10
Airport Akron Canton Regional Airport (KCAK)

Arrival

Time N/A
Airport Cleveland Hopkins International Airport (KCLE)
Time Latitude Longitude Altitude Speed Heading
2026-04-27 20:02 40.91186 -81.43437 1251 ft 0 kts 160°
2026-04-27 20:05 40.91183 -81.43434 1223 ft 2 kts 115°
2026-04-27 20:05 40.91208 -81.43426 1223 ft 8 kts 294°
2026-04-27 20:06 40.91161 -81.43524 1223 ft 5 kts 239°
2026-04-27 20:06 40.91149 -81.43571 1223 ft 13 kts 292°
2026-04-27 20:06 40.91241 -81.43686 1222 ft 32 kts 316°
2026-04-27 20:06 40.91382 -81.43905 1221 ft 23 kts 327°
2026-04-27 20:07 40.91518 -81.43949 1220 ft 19 kts
2026-04-27 20:07 40.91640 -81.43878 1220 ft 22 kts 39°
2026-04-27 20:07 40.91725 -81.43798 1222 ft 5 kts 357°
2026-04-27 20:07 40.91735 -81.43799 1222 ft 0 kts 354°
2026-04-27 20:08 40.91826 -81.43811 1222 ft 29 kts 354°
2026-04-27 20:08 40.92036 -81.43847 1218 ft 24 kts 352°
2026-04-27 20:08 40.92199 -81.43871 1208 ft 24 kts 352°
2026-04-27 20:08 40.92363 -81.43894 1201 ft 15 kts 355°
2026-04-27 20:09 40.92395 -81.43927 1200 ft 2 kts 272°
2026-04-27 20:09 40.92397 -81.43954 1200 ft 10 kts 274°
2026-04-27 20:09 40.92345 -81.44044 1202 ft 14 kts 184°
2026-04-27 20:09 40.92152 -81.44056 1205 ft 46 kts 183°
2026-04-27 20:10 40.91775 -81.44077 1287 ft 59 kts 179°
2026-04-27 20:10 40.91375 -81.44108 1458 ft 59 kts 184°
2026-04-27 20:10 40.90958 -81.44151 1648 ft 56 kts 177°
2026-04-27 20:10 40.90562 -81.44219 1840 ft 61 kts 185°
2026-04-27 20:11 40.90124 -81.44365 1984 ft 69 kts 185°
2026-04-27 20:11 40.89614 -81.44482 2137 ft 79 kts 185°
2026-04-27 20:11 40.89046 -81.44603 2270 ft 86 kts 183°
2026-04-27 20:11 40.88456 -81.44733 2400 ft 88 kts 183°
2026-04-27 20:12 40.87840 -81.44857 2521 ft 90 kts 183°
2026-04-27 20:12 40.87417 -81.44939 2612 ft 91 kts 184°
2026-04-27 20:12 40.86588 -81.45106 2781 ft 92 kts 184°
2026-04-27 20:12 40.85954 -81.45263 2905 ft 96 kts 197°
2026-04-27 20:13 40.85665 -81.46082 3045 ft 117 kts 277°
2026-04-27 20:13 40.86003 -81.47084 3181 ft 120 kts 290°
2026-04-27 20:13 40.86368 -81.48054 3304 ft 116 kts 292°
2026-04-27 20:13 40.86733 -81.49013 3437 ft 120 kts 291°
2026-04-27 20:14 40.87117 -81.50019 3498 ft 125 kts 291°
2026-04-27 20:14 40.87525 -81.51080 3513 ft 134 kts 292°
2026-04-27 20:14 40.88231 -81.51940 3511 ft 143 kts 333°
2026-04-27 20:14 40.89111 -81.52513 3513 ft 141 kts 334°
2026-04-27 20:15 40.89988 -81.53082 3496 ft 138 kts 334°
2026-04-27 20:15 40.90836 -81.53638 3484 ft 135 kts 333°
2026-04-27 20:15 40.91670 -81.54182 3489 ft 133 kts 334°
2026-04-27 20:15 40.92486 -81.54714 3494 ft 133 kts 334°
2026-04-27 20:16 40.93308 -81.55257 3493 ft 132 kts 334°
2026-04-27 20:16 40.94121 -81.55797 3489 ft 130 kts 333°
2026-04-27 20:16 40.94932 -81.56333 3499 ft 132 kts 334°
2026-04-27 20:16 40.95767 -81.56877 3500 ft 137 kts 334°
2026-04-27 20:17 40.96616 -81.57438 3494 ft 135 kts 335°
2026-04-27 20:17 40.97442 -81.58004 3488 ft 133 kts 334°
2026-04-27 20:17 40.98273 -81.58564 3498 ft 137 kts 334°
2026-04-27 20:17 40.98838 -81.58943 3485 ft 137 kts 334°
2026-04-27 20:18 40.99965 -81.59688 3487 ft 135 kts 334°
2026-04-27 20:18 41.00806 -81.60257 3501 ft 138 kts 334°
2026-04-27 20:18 41.01675 -81.60835 3503 ft 141 kts 335°
2026-04-27 20:18 41.02562 -81.61425 3503 ft 143 kts 334°
2026-04-27 20:19 41.03440 -81.62015 3496 ft 139 kts 334°
2026-04-27 20:19 41.04313 -81.62582 3489 ft 140 kts 334°
2026-04-27 20:19 41.05182 -81.63140 3497 ft 138 kts 334°
2026-04-27 20:19 41.06048 -81.63702 3496 ft 138 kts 334°
2026-04-27 20:20 41.06914 -81.64266 3494 ft 140 kts 334°